TimePST,TemperatureF,Dew PointF,Humidity,Sea Level PressureIn,VisibilityMPH,Wind Direction,Wind SpeedMPH,Gust SpeedMPH,PrecipitationIn,Events,Conditions,WindDirDegrees,DateUTC
12:15 AM,46.4,42.8,87,30.13,10.0,Calm,Calm,-,N/A,,Overcast,0,2013-02-04 08:15:00
12:35 AM,48.2,44.6,87,30.13,10.0,WSW,3.5,-,N/A,,Overcast,250,2013-02-04 08:35:00
12:55 AM,48.2,44.6,87,30.13,10.0,Calm,Calm,-,N/A,,Overcast,0,2013-02-04 08:55:00
1:15 AM,48.2,44.6,87,30.12,10.0,Calm,Calm,-,N/A,,Overcast,0,2013-02-04 09:15:00
2:55 AM,48.2,46.4,93,30.10,7.0,Calm,Calm,-,N/A,,Overcast,0,2013-02-04 10:55:00
3:15 AM,48.2,46.4,93,30.10,8.0,East,3.5,-,N/A,,Overcast,100,2013-02-04 11:15:00
3:35 AM,48.2,46.4,93,30.09,7.0,Calm,Calm,-,N/A,,Overcast,0,2013-02-04 11:35:00
3:55 AM,48.2,46.4,93,30.09,7.0,Calm,Calm,-,N/A,,Overcast,0,2013-02-04 11:55:00
4:15 AM,48.2,46.4,93,30.09,7.0,Calm,Calm,-,N/A,,Overcast,0,2013-02-04 12:15:00
4:35 AM,48.2,46.4,93,30.09,5.0,North,3.5,-,N/A,,Overcast,360,2013-02-04 12:35:00
4:55 AM,48.2,44.6,87,30.09,9.0,North,4.6,-,N/A,,Overcast,350,2013-02-04 12:55:00
5:15 AM,48.2,44.6,87,30.08,10.0,NNW,6.9,-,N/A,,Overcast,330,2013-02-04 13:15:00
5:35 AM,48.2,44.6,87,30.08,9.0,North,6.9,-,N/A,,Overcast,360,2013-02-04 13:35:00
5:55 AM,46.4,44.6,93,30.08,10.0,NE,5.8,-,N/A,,Overcast,40,2013-02-04 13:55:00
6:15 AM,48.2,44.6,87,30.09,10.0,Calm,Calm,-,N/A,,Overcast,0,2013-02-04 14:15:00
6:35 AM,48.2,44.6,87,30.09,10.0,Calm,Calm,-,N/A,,Overcast,0,2013-02-04 14:35:00
6:55 AM,46.4,44.6,93,30.09,9.0,ESE,4.6,-,N/A,,Overcast,110,2013-02-04 14:55:00
7:15 AM,46.4,44.6,93,30.10,7.0,East,4.6,-,N/A,,Overcast,90,2013-02-04 15:15:00
7:35 AM,46.4,44.6,93,30.10,9.0,East,5.8,-,N/A,,Overcast,80,2013-02-04 15:35:00
7:55 AM,46.4,42.8,87,30.10,10.0,ENE,5.8,-,N/A,,Overcast,60,2013-02-04 15:55:00
8:15 AM,46.4,44.6,93,30.10,10.0,East,5.8,-,N/A,,Overcast,100,2013-02-04 16:15:00
8:35 AM,48.2,42.8,82,30.10,10.0,ESE,6.9,-,N/A,,Overcast,120,2013-02-04 16:35:00
8:55 AM,48.2,44.6,87,30.11,10.0,ENE,4.6,-,N/A,,Overcast,70,2013-02-04 16:55:00
9:15 AM,50.0,44.6,82,30.13,10.0,Calm,Calm,-,N/A,,Overcast,0,2013-02-04 17:15:00
9:35 AM,50.0,44.6,82,30.13,10.0,Calm,Calm,-,N/A,,Overcast,0,2013-02-04 17:35:00
9:55 AM,51.8,44.6,76,30.13,10.0,Calm,Calm,-,N/A,,Scattered Clouds,0,2013-02-04 17:55:00
10:15 AM,53.6,44.6,72,30.13,10.0,Calm,Calm,-,N/A,,Clear,0,2013-02-04 18:15:00
10:35 AM,55.4,44.6,67,30.13,10.0,Calm,Calm,-,N/A,,Clear,0,2013-02-04 18:35:00
10:55 AM,55.4,44.6,67,30.12,10.0,Calm,Calm,-,N/A,,Clear,0,2013-02-04 18:55:00
11:15 AM,60.8,44.6,55,30.11,10.0,Calm,Calm,-,N/A,,Clear,0,2013-02-04 19:15:00
11:35 AM,60.8,42.8,52,30.10,10.0,Calm,Calm,-,N/A,,Clear,0,2013-02-04 19:35:00
11:55 AM,62.6,42.8,48,30.09,10.0,West,4.6,-,N/A,,Clear,260,2013-02-04 19:55:00
12:15 PM,64.4,46.4,52,30.08,10.0,WSW,3.5,-,N/A,,Clear,250,2013-02-04 20:15:00
12:35 PM,66.2,46.4,49,30.07,10.0,West,8.1,-,N/A,,Clear,270,2013-02-04 20:35:00
12:55 PM,64.4,46.4,52,30.07,10.0,West,10.4,-,N/A,,Clear,270,2013-02-04 20:55:00
1:15 PM,64.4,44.6,49,30.06,10.0,West,12.7,-,N/A,,Clear,270,2013-02-04 21:15:00
1:35 PM,62.6,44.6,52,30.05,10.0,West,12.7,-,N/A,,Clear,270,2013-02-04 21:35:00
1:55 PM,62.6,46.4,55,30.06,9.0,West,17.3,-,N/A,,Clear,270,2013-02-04 21:55:00
2:15 PM,60.8,48.2,63,30.06,8.0,West,16.1,-,N/A,,Clear,270,2013-02-04 22:15:00
2:35 PM,57.2,48.2,72,30.05,10.0,West,15.0,21.9,N/A,,Clear,270,2013-02-04 22:35:00
2:55 PM,57.2,48.2,72,30.05,10.0,West,13.8,-,N/A,,Clear,270,2013-02-04 22:55:00
3:15 PM,57.2,48.2,72,30.05,9.0,West,13.8,-,N/A,,Clear,270,2013-02-04 23:15:00
3:35 PM,57.2,48.2,72,30.05,10.0,West,13.8,18.4,N/A,,Clear,270,2013-02-04 23:35:00
4:15 PM,55.4,48.2,77,30.05,10.0,West,11.5,-,N/A,,Clear,260,2013-02-05 00:15:00
4:35 PM,55.4,48.2,77,30.05,10.0,West,12.7,-,N/A,,Clear,270,2013-02-05 00:35:00
4:55 PM,53.6,48.2,82,30.05,9.0,West,9.2,-,N/A,,Clear,260,2013-02-05 00:55:00
5:15 PM,53.6,48.2,82,30.04,9.0,West,6.9,-,N/A,,Clear,260,2013-02-05 01:15:00
5:35 PM,53.6,46.4,77,30.04,9.0,West,5.8,-,N/A,,Clear,260,2013-02-05 01:35:00
5:55 PM,51.8,46.4,82,30.05,9.0,WSW,5.8,-,N/A,,Clear,250,2013-02-05 01:55:00
6:15 PM,51.8,46.4,82,30.05,10.0,WSW,5.8,-,N/A,,Clear,250,2013-02-05 02:15:00
6:35 PM,50.0,46.4,87,30.05,9.0,Calm,Calm,-,N/A,,Clear,0,2013-02-05 02:35:00
6:55 PM,50.0,46.4,87,30.06,10.0,WSW,3.5,-,N/A,,Clear,250,2013-02-05 02:55:00
7:15 PM,48.2,44.6,87,30.06,8.0,Calm,Calm,-,N/A,,Clear,0,2013-02-05 03:15:00
7:35 PM,48.2,44.6,87,30.07,8.0,Calm,Calm,-,N/A,,Partly Cloudy,0,2013-02-05 03:35:00
7:55 PM,48.2,44.6,87,30.08,9.0,Calm,Calm,-,N/A,,Mostly Cloudy,0,2013-02-05 03:55:00
8:15 PM,48.2,44.6,87,30.08,8.0,Calm,Calm,-,N/A,,Overcast,0,2013-02-05 04:15:00
8:35 PM,48.2,46.4,93,30.08,3.0,Calm,Calm,-,N/A,,Overcast,0,2013-02-05 04:35:00
8:55 PM,48.2,46.4,93,30.08,1.0,Calm,Calm,-,N/A,,Overcast,0,2013-02-05 04:55:00
9:15 PM,48.2,46.4,93,30.08,1.2,ESE,3.5,-,N/A,,Overcast,110,2013-02-05 05:15:00
9:35 PM,48.2,46.4,93,30.08,2.5,Calm,Calm,-,N/A,,Overcast,0,2013-02-05 05:35:00
9:55 PM,48.2,46.4,93,30.09,0.8,Calm,Calm,-,N/A,,Overcast,0,2013-02-05 05:55:00
10:15 PM,50.0,46.4,87,30.09,2.5,WNW,4.6,-,N/A,,Overcast,290,2013-02-05 06:15:00
10:35 PM,50.0,46.4,87,30.10,1.5,Calm,Calm,-,N/A,,Overcast,0,2013-02-05 06:35:00
10:55 PM,50.0,46.4,87,30.10,1.0,Calm,Calm,-,N/A,,Overcast,0,2013-02-05 06:55:00
11:15 PM,50.0,48.2,94,30.09,0.8,Calm,Calm,-,N/A,,Overcast,0,2013-02-05 07:15:00
11:35 PM,50.0,46.4,87,30.10,1.5,Calm,Calm,-,N/A,,Overcast,0,2013-02-05 07:35:00
11:55 PM,50.0,46.4,87,30.10,1.8,Calm,Calm,-,N/A,,Overcast,0,2013-02-05 07:55:00